Change the Weather History Date:

Sunday, February 24, 2013

  Actual Average (KNHK) Record (KNHK)
Temperature  
Mean Temperature 46 °F -  
Max Temperature 54 °F 50 °F 48 °F (2014)
Min Temperature 35 °F 33 °F 16 °F (2015)
Degree Days  
Heating Degree Days 20    
Moisture  
Dew Point 36 °F    
Average Humidity 74    
Maximum Humidity 96    
Minimum Humidity 43    
Precipitation  
Precipitation 0.02 in - - ()
Sea Level Pressure  
Sea Level Pressure 29.87 in    
Wind  
Wind Speed 4 mph (NW)    
Max Wind Speed 13 mph    
Max Gust Speed 22 mph    
Visibility 7 miles    
Events Rain    
Averages and records for this station are not official NWS values.
T = Trace of Precipitation, MM = Missing Value Source: NWS Daily Summary

Daily Weather History Graph

Daily Weather History Graph

Search for Another Location

Airport or City:

Trip Planner

Search our weather history database for the weather conditions in past years. The results will help you decide how hot, cold, wet, or windy it might be!

Date:

Astronomy

Feb. 24, 2013 Rise Set
Actual Time 6:44 AM EST 5:54 PM EST
Civil Twilight 6:17 AM EST 6:20 PM EST
Nautical Twilight 5:46 AM EST 6:51 PM EST
Astronomical Twilight 5:16 AM EST 7:21 PM EST
Moon 5:03 PM EST (2/24) 5:39 AM EST (2/24)
Length of Visible Light 12h 03m
Length of Day
11h 10m
Waxing Gibbous, 99% of the Moon is Illuminated
Feb 24
Waxing Gibbous
Feb 25
Full
Mar 4
Last Quarter
Mar 11
New
Mar 19
First Quarter

Hourly Weather History & Observations

Time (EST) Temp. Windchill Dew Point Humidity Pressure Visibility Wind Dir Wind Speed Gust Speed Precip Events Conditions
12:06 AM 42.8 °F 39.3 °F 41.0 °F 93% 29.81 in 1.0 mi West 5.8 mph - N/A   Mist
12:53 AM 43.0 °F - 41.0 °F 93% 29.79 in 1.0 mi Calm Calm - N/A   Mist
1:37 AM 42.8 °F - 41.0 °F 93% 29.79 in 0.8 mi Calm Calm - 0.01 in   Mist
1:53 AM 43.0 °F 41.3 °F 41.0 °F 93% 29.80 in 0.8 mi WNW 3.5 mph - 0.01 in   Mist
2:13 AM 42.8 °F 41.1 °F 41.0 °F 93% 29.80 in 1.0 mi WNW 3.5 mph - N/A   Mist
2:45 AM 44.6 °F - 42.8 °F 93% 29.78 in 3.0 mi Calm Calm - N/A   Overcast
2:53 AM 44.1 °F - 43.0 °F 96% 29.78 in 2.5 mi Calm Calm - N/A   Overcast
3:05 AM 44.6 °F 42.2 °F 42.8 °F 93% 29.79 in 4.0 mi NNW 4.6 mph - N/A   Overcast
3:33 AM 44.6 °F 43.1 °F 42.8 °F 93% 29.79 in 4.0 mi North 3.5 mph - N/A   Overcast
3:53 AM 44.1 °F - 42.1 °F 93% 29.80 in 4.0 mi Calm Calm - N/A   Overcast
4:53 AM 44.1 °F 41.5 °F 42.1 °F 93% 29.79 in 3.0 mi Variable 4.6 mph - N/A   Overcast
5:53 AM 43.0 °F 40.3 °F 41.0 °F 93% 29.80 in 4.0 mi ENE 4.6 mph - N/A   Overcast
6:04 AM 42.8 °F - 41.0 °F 93% 29.81 in 3.0 mi Calm Calm - N/A   Overcast
6:53 AM 43.0 °F 38.2 °F 39.9 °F 89% 29.86 in 10.0 mi WNW 8.1 mph - N/A   Overcast
7:53 AM 44.1 °F - 41.0 °F 89% 29.85 in 8.0 mi Calm Calm - 0.01 in Rain Light Rain
8:53 AM 43.0 °F 41.3 °F 41.0 °F 93% 29.87 in 6.0 mi Variable 3.5 mph - 0.00 in   Overcast
9:22 AM 44.6 °F 43.1 °F 39.2 °F 81% 29.87 in 9.0 mi Variable 3.5 mph - N/A   Overcast
9:53 AM 45.0 °F - 41.0 °F 86% 29.88 in 9.0 mi Calm Calm - N/A   Overcast
10:20 AM 46.4 °F 43.5 °F 41.0 °F 81% 29.88 in 10.0 mi Variable 5.8 mph - N/A   Scattered Clouds
10:53 AM 50.0 °F - 39.9 °F 68% 29.88 in 10.0 mi NW 5.8 mph - N/A   Scattered Clouds
11:53 AM 48.9 °F - 41.0 °F 74% 29.87 in 10.0 mi SW 9.2 mph - N/A   Clear
12:53 PM 53.1 °F - 35.1 °F 50% 29.86 in 10.0 mi West 12.7 mph - N/A   Mostly Cloudy
1:53 PM 54.0 °F - 34.0 °F 47% 29.85 in 10.0 mi West 12.7 mph - N/A   Mostly Cloudy
2:53 PM 52.0 °F - 33.1 °F 49% 29.85 in 10.0 mi West 9.2 mph - N/A   Overcast
3:53 PM 54.0 °F - 33.1 °F 45% 29.86 in 10.0 mi West 8.1 mph - N/A   Mostly Cloudy
4:53 PM 53.1 °F - 32.0 °F 45% 29.87 in 10.0 mi West 6.9 mph - N/A   Mostly Cloudy
5:53 PM 50.0 °F - 28.0 °F 43% 29.90 in 10.0 mi NNW 5.8 mph - N/A   Clear
6:53 PM 46.0 °F 40.2 °F 25.0 °F 44% 29.95 in 10.0 mi North 12.7 mph 19.6 mph N/A   Clear
7:53 PM 42.1 °F 36.6 °F 24.1 °F 49% 30.01 in 10.0 mi NNW 9.2 mph 21.9 mph N/A   Clear
8:53 PM 39.0 °F 34.0 °F 23.0 °F 53% 30.06 in 10.0 mi North 6.9 mph - N/A   Clear
9:53 PM 37.0 °F 31.6 °F 21.0 °F 52% 30.08 in 10.0 mi Variable 6.9 mph - N/A   Clear
10:53 PM 37.0 °F 31.0 °F 17.1 °F 44% 30.09 in 10.0 mi NW 8.1 mph - N/A   Clear
11:53 PM 35.1 °F 27.9 °F 17.1 °F 48% 30.09 in 10.0 mi NW 9.2 mph - N/A   Clear